Location: Engelmannsreuth
(49.8125°N, 11.6497°E)
Time: 15:27:05
(UTC+00:00)

Cosmos 2237 Rocket - Pass Details

Date: 17 February 2020
Orbit: 835 x 849 km, 71.0° (Epoch: 07 April)

Event Time Altitude Azimuth Distance (km) Brightness Sun altitude
Exits shadow 04:03:28 38° 311° (NW) 1,249 2.7 -22.8°
Drops below altitude 10° 04:08:40 10° 18° (NNE) 2,458 4.9 -22.0°
Sets 04:11:18 0° 27° (NNE) 3,396 5.8 -21.5°
